When you browse on this site, cookies collect data to enhance your experience and personalize the content and advertising you see.
Visit our Privacy Policy to learn more. By continuing to use the site, you agree to this use of cookies and data.
  • Em Portugal
  • Lista de países
  • Para 7 dias
  • Temperatura da água
  • Mapa do tempo
  • Widgets de tempo
  • user-avatar
    Iniciar Sessão

    Previsão horária em Bor

    Hoje, 18 Setembro, Quarta-feira

    Tempo Temperatura Precipitação Vento Pressão Humidade
    00:00 +7°C° 0 mm 4 m/s 734 mmHg 90%
    01:00 +6°C° 0 mm 4 m/s 734 mmHg 91%
    02:00 +7°C° 0 mm 3 m/s 734 mmHg 95%
    03:00 +7°C° 0.1 mm 3 m/s 734 mmHg 95%
    04:00 +7°C° 0.1 mm 3 m/s 733 mmHg 94%
    05:00 +5°C° 0.1 mm 3 m/s 733 mmHg 93%
    06:00 +6°C° 0.1 mm 4 m/s 734 mmHg 91%
    07:00 +6°C° 0.1 mm 4 m/s 734 mmHg 89%
    08:00 +6°C° 0.1 mm 5 m/s 734 mmHg 87%
    09:00 +6°C° 0.1 mm 5 m/s 735 mmHg 84%
    10:00 +7°C° 0.1 mm 5 m/s 735 mmHg 81%
    11:00 +7°C° 0.1 mm 5 m/s 736 mmHg 78%
    12:00 +8°C° 0.2 mm 6 m/s 736 mmHg 77%
    13:00 +8°C° 0.2 mm 6 m/s 737 mmHg 76%
    14:00 +8°C° 0.2 mm 7 m/s 737 mmHg 74%
    15:00 +8°C° 0 mm 6 m/s 738 mmHg 74%
    16:00 +8°C° 0 mm 5 m/s 738 mmHg 74%
    17:00 +9°C° 0 mm 5 m/s 739 mmHg 74%
    18:00 +8°C° 0 mm 4 m/s 739 mmHg 78%
    19:00 +7°C° 0 mm 4 m/s 740 mmHg 82%
    20:00 +6°C° 0 mm 4 m/s 740 mmHg 86%
    21:00 +6°C° 0 mm 4 m/s 741 mmHg 89%
    22:00 +6°C° 0 mm 4 m/s 741 mmHg 92%
    23:00 +5°C° 0 mm 4 m/s 741 mmHg 94%

    Amanhã, 19 Setembro, Quinta-feira

    Tempo Temperatura Precipitação Vento Pressão Humidade
    00:00 +5°C° 0 mm 4 m/s 742 mmHg 95%
    01:00 +5°C° 0 mm 4 m/s 742 mmHg 95%
    02:00 +5°C° 0 mm 4 m/s 742 mmHg 96%
    03:00 +5°C° 0 mm 4 m/s 743 mmHg 95%
    04:00 +5°C° 0 mm 4 m/s 743 mmHg 95%
    05:00 +6°C° 0 mm 4 m/s 744 mmHg 94%
    06:00 +6°C° 0.2 mm 4 m/s 744 mmHg 93%
    07:00 +7°C° 0.2 mm 4 m/s 744 mmHg 92%
    08:00 +8°C° 0.2 mm 3 m/s 745 mmHg 90%
    09:00 +8°C° 0.4 mm 4 m/s 745 mmHg 86%
    10:00 +10°C° 0.4 mm 4 m/s 746 mmHg 81%
    11:00 +10°C° 0.4 mm 4 m/s 746 mmHg 77%
    12:00 +11°C° 0.3 mm 4 m/s 746 mmHg 72%
    13:00 +11°C° 0.3 mm 4 m/s 747 mmHg 67%
    14:00 +12°C° 0.3 mm 4 m/s 747 mmHg 62%
    15:00 +12°C° 0 mm 4 m/s 747 mmHg 64%
    16:00 +11°C° 0 mm 3 m/s 747 mmHg 66%
    17:00 +11°C° 0 mm 3 m/s 747 mmHg 68%
    18:00 +10°C° 0 mm 3 m/s 747 mmHg 74%
    19:00 +8°C° 0 mm 3 m/s 747 mmHg 80%
    20:00 +7°C° 0 mm 2 m/s 747 mmHg 86%
    21:00 +7°C° 0 mm 3 m/s 747 mmHg 88%
    22:00 +5°C° 0 mm 3 m/s 747 mmHg 90%
    23:00 +5°C° 0 mm 3 m/s 747 mmHg 92%

    Depois de amanhã, 20 Setembro, Sexta-feira

    Tempo Temperatura Precipitação Vento Pressão Humidade
    00:00 +5°C° 0 mm 3 m/s 747 mmHg 93%
    01:00 +5°C° 0 mm 3 m/s 746 mmHg 94%
    02:00 +5°C° 0 mm 4 m/s 746 mmHg 95%
    03:00 +5°C° 0 mm 4 m/s 746 mmHg 93%
    04:00 +5°C° 0 mm 4 m/s 746 mmHg 91%
    05:00 +5°C° 0 mm 4 m/s 746 mmHg 89%
    06:00 +5°C° 0 mm 5 m/s 747 mmHg 86%
    07:00 +5°C° 0 mm 5 m/s 747 mmHg 84%
    08:00 +4°C° 0 mm 6 m/s 747 mmHg 82%
    09:00 +5°C° 0 mm 6 m/s 748 mmHg 77%
    10:00 +5°C° 0 mm 6 m/s 748 mmHg 71%
    11:00 +7°C° 0 mm 6 m/s 748 mmHg 66%
    12:00 +8°C° 0 mm 6 m/s 749 mmHg 59%
    13:00 +9°C° 0 mm 6 m/s 749 mmHg 53%
    14:00 +10°C° 0 mm 6 m/s 749 mmHg 46%
    15:00 +9°C° 0 mm 6 m/s 749 mmHg 48%
    16:00 +9°C° 0 mm 5 m/s 749 mmHg 49%
    17:00 +8°C° 0 mm 4 m/s 749 mmHg 50%
    18:00 +8°C° 0 mm 3 m/s 750 mmHg 56%
    19:00 +5°C° 0 mm 3 m/s 750 mmHg 61%
    20:00 +4°C° 0 mm 3 m/s 750 mmHg 67%
    21:00 +4°C° 0 mm 2 m/s 751 mmHg 71%
    22:00 +4°C° 0 mm 2 m/s 751 mmHg 75%
    23:00 +3°C° 0 mm 2 m/s 751 mmHg 79%

    21 Setembro, Sábado

    Tempo Temperatura Precipitação Vento Pressão Humidade
    00:00 +3°C° 0 mm 2 m/s 751 mmHg 82%
    01:00 +3°C° 0 mm 2 m/s 751 mmHg 84%
    02:00 +3°C° 0 mm 2 m/s 751 mmHg 87%
    03:00 +2°C° 0 mm 2 m/s 751 mmHg 88%
    04:00 +2°C° 0 mm 2 m/s 751 mmHg 88%
    05:00 +2°C° 0 mm 2 m/s 751 mmHg 89%
    06:00 +4°C° 0 mm 2 m/s 751 mmHg 84%
    07:00 +4°C° 0 mm 3 m/s 751 mmHg 79%
    08:00 +5°C° 0 mm 3 m/s 751 mmHg 74%
    09:00 +7°C° 0.1 mm 3 m/s 750 mmHg 74%
    10:00 +6°C° 0.1 mm 4 m/s 750 mmHg 75%
    11:00 +7°C° 0.1 mm 4 m/s 750 mmHg 76%
    12:00 +7°C° 0.6 mm 5 m/s 749 mmHg 81%
    13:00 +7°C° 0.6 mm 5 m/s 749 mmHg 87%
    14:00 +7°C° 0.6 mm 5 m/s 748 mmHg 92%
    15:00 +8°C° 0.1 mm 5 m/s 748 mmHg 91%
    16:00 +9°C° 0.1 mm 5 m/s 748 mmHg 90%
    17:00 +10°C° 0.1 mm 5 m/s 747 mmHg 88%
    18:00 +10°C° 0 mm 5 m/s 747 mmHg 88%
    19:00 +10°C° 0 mm 5 m/s 747 mmHg 88%
    20:00 +12°C° 0 mm 5 m/s 747 mmHg 88%
    21:00 +10°C° 0 mm 5 m/s 747 mmHg 89%
    22:00 +10°C° 0 mm 5 m/s 747 mmHg 90%
    23:00 +10°C° 0 mm 5 m/s 747 mmHg 91%

    22 Setembro, Domingo

    Tempo Temperatura Precipitação Vento Pressão Humidade
    00:00 +10°C° 0 mm 5 m/s 747 mmHg 91%
    01:00 +10°C° 0 mm 5 m/s 747 mmHg 92%
    02:00 +9°C° 0 mm 6 m/s 747 mmHg 92%
    03:00 +10°C° 0 mm 6 m/s 747 mmHg 91%
    04:00 +10°C° 0 mm 5 m/s 746 mmHg 90%
    05:00 +10°C° 0 mm 5 m/s 746 mmHg 88%
    06:00 +10°C° 0 mm 6 m/s 746 mmHg 87%
    07:00 +10°C° 0 mm 6 m/s 747 mmHg 87%
    08:00 +10°C° 0 mm 6 m/s 747 mmHg 86%
    09:00 +11°C° 0 mm 6 m/s 747 mmHg 83%
    10:00 +12°C° 0 mm 5 m/s 747 mmHg 79%
    11:00 +13°C° 0 mm 5 m/s 748 mmHg 76%
    12:00 +13°C° 0 mm 5 m/s 748 mmHg 70%
    13:00 +14°C° 0 mm 5 m/s 748 mmHg 64%
    14:00 +14°C° 0 mm 4 m/s 748 mmHg 58%
    15:00 +14°C° 0 mm 3 m/s 748 mmHg 56%
    16:00 +13°C° 0 mm 3 m/s 748 mmHg 55%
    17:00 +14°C° 0 mm 2 m/s 748 mmHg 53%
    18:00 +12°C° 0 mm 2 m/s 748 mmHg 55%
    19:00 +9°C° 0 mm 2 m/s 748 mmHg 56%
    20:00 +7°C° 0 mm 2 m/s 749 mmHg 57%
    21:00 +6°C° 0 mm 2 m/s 749 mmHg 60%
    22:00 +6°C° 0 mm 2 m/s 749 mmHg 63%
    23:00 +5°C° 0 mm 2 m/s 749 mmHg 66%

    23 Setembro, Segunda-feira

    Tempo Temperatura Precipitação Vento Pressão Humidade
    00:00 +5°C° 0 mm 2 m/s 749 mmHg 67%
    01:00 +4°C° 0 mm 2 m/s 749 mmHg 69%
    02:00 +4°C° 0 mm 2 m/s 749 mmHg 71%
    03:00 +4°C° 0 mm 2 m/s 749 mmHg 71%
    04:00 +4°C° 0 mm 2 m/s 749 mmHg 72%
    05:00 +3°C° 0 mm 3 m/s 749 mmHg 72%
    06:00 +4°C° 0 mm 3 m/s 748 mmHg 70%
    07:00 +4°C° 0 mm 3 m/s 748 mmHg 67%
    08:00 +5°C° 0 mm 4 m/s 748 mmHg 65%
    09:00 +6°C° 0 mm 4 m/s 748 mmHg 64%
    10:00 +6°C° 0 mm 4 m/s 748 mmHg 62%
    11:00 +8°C° 0 mm 3 m/s 748 mmHg 61%
    12:00 +7°C° 0 mm 4 m/s 748 mmHg 60%
    13:00 +8°C° 0 mm 4 m/s 747 mmHg 59%
    14:00 +8°C° 0 mm 4 m/s 747 mmHg 58%
    15:00 +8°C° 0 mm 4 m/s 747 mmHg 58%
    16:00 +8°C° 0 mm 4 m/s 746 mmHg 58%
    17:00 +8°C° 0 mm 4 m/s 746 mmHg 59%
    18:00 +7°C° 0 mm 4 m/s 746 mmHg 61%
    19:00 +7°C° 0 mm 3 m/s 746 mmHg 64%
    20:00 +7°C° 0 mm 3 m/s 746 mmHg 66%
    21:00 +5°C° 0 mm 3 m/s 746 mmHg 67%
    22:00 +5°C° 0 mm 3 m/s 746 mmHg 67%
    23:00 +5°C° 0 mm 3 m/s 746 mmHg 67%
    Mostrar mais